This is the latest recevied weather packets stored in our database for station/object DG4MJS-10. If no packets are shown the sender has not sent any weather packets the latest 10 day(s).
| Time | Temp. | Humidity | Pressure | Rain* | Wind** | Luminosity | Snow |
|---|---|---|---|---|---|---|---|
| 1777788904 | 13.33° C | 60% | 1015.5 hPa | - | - | - | - |
| 1777788004 | 12.78° C | 60% | 1015.5 hPa | - | - | - | - |
| 1777787104 | 12.78° C | 59% | 1015.5 hPa | - | - | - | - |
| 1777786204 | 12.22° C | 61% | 1015.6 hPa | - | - | - | - |
| 1777785304 | 11.67° C | 60% | 1015.5 hPa | - | - | - | - |
| 1777784404 | 11.67° C | 61% | 1015.6 hPa | - | - | - | - |
| 1777783504 | 11.11° C | 61% | 1015.5 hPa | - | - | - | - |
| 1777782603 | 11.11° C | 62% | 1015.6 hPa | - | - | - | - |
| 1777781705 | 11.11° C | 61% | 1015.5 hPa | - | - | - | - |
| 1777780805 | 11.11° C | 60% | 1015.4 hPa | - | - | - | - |
| 1777779905 | 11.11° C | 60% | 1015.6 hPa | - | - | - | - |
| 1777779005 | 11.11° C | 60% | 1015.5 hPa | - | - | - | - |
| 1777778105 | 11.67° C | 60% | 1015.6 hPa | - | - | - | - |
| 1777777205 | 11.67° C | 60% | 1015.7 hPa | - | - | - | - |
| 1777776305 | 11.67° C | 60% | 1015.6 hPa | - | - | - | - |
| 1777775405 | 11.67° C | 60% | 1015.6 hPa | - | - | - | - |
| 1777774505 | 11.67° C | 59% | 1015.8 hPa | - | - | - | - |
| 1777773605 | 11.67° C | 60% | 1015.7 hPa | - | - | - | - |
| 1777772705 | 11.67° C | 60% | 1015.7 hPa | - | - | - | - |
| 1777771804 | 12.22° C | 59% | 1015.7 hPa | - | - | - | - |
| 1777770904 | 12.22° C | 59% | 1015.7 hPa | - | - | - | - |
| 1777770004 | 12.22° C | 59% | 1015.7 hPa | - | - | - | - |
| 1777769104 | 12.22° C | 59% | 1015.8 hPa | - | - | - | - |
| 1777768204 | 12.22° C | 59% | 1015.9 hPa | - | - | - | - |
| 1777767304 | 12.78° C | 59% | 1016 hPa | - | - | - | - |
* Rain since midnight (hover to see other rain measurements)
** Current wind speed in m/s (hover to see current wind gust speed)